Location: Rounton
(54.4000°N, 1.3500°W)
Time: 22:35:50
(UTC+00:00)

Vanguard 3 - Pass Details

Date: 08 December 2021
Orbit: 508 x 3260 km, 33.3° (Epoch: 17 January)

Event Time Altitude Azimuth Distance (km) Brightness Sun altitude
Rises 08:06:36 0° 269° (W) 7,191 11.5 -1.6°
Reaches altitude 10° 08:13:36 10° 256° (WSW) 5,962 11.2 -0.8°
Maximum altitude 08:24:18 20° 220° (SW) 4,572 11.0 0.4°
Drops below altitude 10° 08:32:49 10° 180° (S) 4,594 11.7 1.3°
Sets 08:37:13 0° 164° (SSE) 5,125 12.5 1.7°
